KF6ILA Weather Reports


time (UTC)temp
C
wind
direction
speed
KPH
gust
KPH
rain 1hr
cm
rain 24hr
cm
rain mn
cm
humidity
%
barometer
mb
20260505181951 5 256 25.7 41.8 0.08 1.24 0.23 100 1011.7
20260505181455 5 259 25.7 41.8 0.08 1.24 0.23 100 1011.6
20260505180957 5 259 24.1 41.8 0.08 1.24 0.23 100 1011.6
20260505180500 5 276 24.1 45.1 0.08 1.22 0.20 100 1011.6
20260505180003 5 266 27.4 45.1 0.08 1.22 0.20 100 1011.3
20260505175506 5 269 25.7 43.5 0.10 1.22 0.20 100 1011.4
20260505175009 5 278 25.7 43.5 0.10 1.22 0.20 100 1011.4
20260505174512 5 276 27.4 41.8 0.10 1.22 0.20 100 1011.3
20260505174015 5 269 27.4 41.8 0.08 1.19 0.18 100 1011.0
20260505173519 5 274 19.3 45.1 0.08 1.19 0.18 100 1010.9
20260505173021 5 259 32.2 45.1 0.10 1.19 0.18 100 1010.7
20260505172524 5 257 27.4 54.7 0.10 1.19 0.18 100 1010.6
20260505172027 5 273 32.2 54.7 0.08 1.17 0.15 100 1010.6
20260505171530 5 257 38.6 54.7 0.08 1.17 0.15 100 1010.7
20260505171033 5 265 25.7 43.5 0.08 1.17 0.15 100 1010.7
20260505170536 6 272 27.4 40.2 0.08 1.14 0.13 100 1010.7
20260505170039 6 270 25.7 40.2 0.08 1.14 0.13 100 1010.6
20260505165542 6 258 24.1 40.2 0.05 1.12 0.10 100 1010.6
20260505165045 6 255 25.7 43.5 0.05 1.12 0.10 100 1010.3
20260505164549 5 269 20.9 43.5 0.05 1.12 0.10 100 1010.4
20260505164051 5 267 20.9 35.4 0.08 1.12 0.10 100 1010.5
20260505163554 5 270 20.9 37.0 0.08 1.12 0.10 100 1010.4
20260505163149 5 269 20.9 38.6 0.08 1.09 0.08 100 1010.4
20260505163057 5 269 20.9 38.6 0.08 1.09 0.08 100 1010.4
20260505162636 5 274 25.7 38.6 0.08 1.09 0.08 100 1010.3
20260505162600 5 274 25.7 38.6 0.08 1.09 0.08 100 1010.3
20260505162103 5 271 22.5 35.4 0.08 1.09 0.08 100 1010.2
20260505161606 5 285 19.3 38.6 0.08 1.09 0.08 100 1010.2
20260505161109 5 284 25.7 48.3 0.08 1.09 0.08 100 1010.2
20260505160612 5 284 25.7 48.3 0.05 1.07 0.05 100 1010.2
20260505160115 5 293 33.8 48.3 0.05 1.07 0.05 100 1010.2
20260505153133 5 269 33.8 48.3 0.00 1.02 0.00 100 1009.9
20260505152636 5 270 33.8 49.9 0.00 1.02 0.00 100 1009.9
20260505152139 5 272 33.8 49.9 0.00 1.02 0.00 100 1009.8
20260505151642 5 262 33.8 51.5 0.00 1.02 0.00 100 1009.7
20260505151145 5 272 29.0 51.5 0.03 1.02 0.00 100 1009.8
20260505150648 5 263 35.4 51.5 0.03 1.02 0.00 100 1009.8
20260505150151 5 275 25.7 53.1 0.03 1.02 0.00 100 1009.7
20260505140227 5 249 29.0 43.5 0.18 0.99 0.99 100 1009.6
20260505130303 5 267 19.3 32.2 0.13 0.81 0.81 100 1009.4
20260505124812 5 282 17.7 40.2 0.10 0.76 0.76 100 1009.3
20260505124316 5 290 25.7 40.2 0.10 0.76 0.76 100 1009.3
20260505123818 5 286 16.1 33.8 0.08 0.74 0.74 100 1009.3
20260505123322 5 256 19.3 33.8 0.08 0.74 0.74 100 1009.3
20260505122824 5 261 24.1 33.8 0.03 0.69 0.69 100 1009.1
20260505122327 5 271 17.7 29.0 0.03 0.69 0.69 100 1008.9
20260505121830 5 264 14.5 29.0 0.03 0.69 0.69 100 1009.0
20260505121333 6 274 14.5 38.6 0.05 0.69 0.69 100 1009.1
20260505120836 6 255 14.5 40.2 0.05 0.69 0.69 100 1009.0
20260505115842 6 255 19.3 33.8 0.05 0.69 0.69 100 1009.2
20260505115345 6 247 19.3 38.6 0.03 0.66 0.66 100 1009.1
20260505114848 6 256 20.9 45.1 0.03 0.66 0.66 100 1009.1
20260505114351 6 268 25.7 48.3 0.05 0.66 0.66 100 1009.1
20260505113855 6 268 32.2 48.3 0.05 0.69 0.66 100 1009.1
20260505113357 6 266 25.7 41.8 0.08 0.69 0.66 100 1009.2
20260505112901 6 266 24.1 45.1 0.08 0.69 0.66 100 1009.3
20260505111907 6 267 25.7 41.8 0.10 0.69 0.66 100 1009.3
20260505111409 6 278 25.7 41.8 0.10 0.66 0.64 100 1009.4
20260505110913 6 272 25.7 51.5 0.10 0.66 0.64 100 1009.4
20260505110415 6 275 30.6 51.5 0.13 0.66 0.64 100 1009.3
20260505101943 5 282 19.3 32.2 0.20 0.58 0.56 100 1009.4
20260505101446 5 278 19.3 32.2 0.20 0.56 0.53 100 1009.3
20260505100949 5 282 16.1 27.4 0.23 0.56 0.53 99 1009.4
20260505095955 5 281 16.1 35.4 0.25 0.51 0.48 100 1009.5
20260505095457 5 270 17.7 35.4 0.30 0.51 0.48 100 1009.6
20260505095001 5 258 24.1 35.4 0.30 0.48 0.46 100 1009.5
20260505094504 5 266 22.5 35.4 0.33 0.48 0.46 100 1009.6
20260505094007 5 263 19.3 32.2 0.33 0.46 0.43 100 1009.6
20260505093510 5 255 14.5 25.7 0.36 0.46 0.43 100 1009.6
20260505093013 5 261 12.9 37.0 0.33 0.43 0.41 100 1009.8
20260505092516 5 254 11.3 37.0 0.30 0.41 0.38 100 1009.7
20260505092019 5 252 20.9 32.2 0.28 0.38 0.36 100 1009.9
20260505091522 5 257 17.7 32.2 0.25 0.36 0.33 99 1009.8
20260505091025 5 253 14.5 27.4 0.25 0.33 0.30 99 1009.9
20260505090527 5 262 19.3 27.4 0.25 0.30 0.28 99 1010.0
20260505090031 5 258 16.1 33.8 0.20 0.25 0.23 99 1009.9
20260505085534 5 272 22.5 33.8 0.15 0.20 0.18 99 1010.0
20260505085038 5 270 19.3 33.8 0.13 0.18 0.15 99 1010.1
20260505084539 5 273 9.7 32.2 0.10 0.15 0.13 99 1010.0
20260505084043 5 250 16.1 29.0 0.08 0.13 0.10 99 1010.2
20260505083546 5 239 14.5 32.2 0.05 0.10 0.08 99 1010.0
20260505083049 5 257 19.3 32.2 0.05 0.10 0.08 99 1010.0
20260505082552 5 266 16.1 32.2 0.05 0.10 0.08 99 1010.2
20260505082054 5 258 19.3 32.2 0.05 0.10 0.08 99 1010.3
20260505081557 5 268 22.5 37.0 0.05 0.10 0.08 99 1010.2
20260505081101 5 269 24.1 37.0 0.03 0.08 0.05 99 1010.4
20260505080604 5 266 19.3 38.6 0.00 0.05 0.03 99 1010.4
20260505080107 5 268 19.3 41.8 0.00 0.05 0.03 99 1010.6
20260505075610 5 274 25.7 41.8 0.00 0.05 0.03 99 1010.6
20260505074711 4 274 29.0 45.1 0.00 0.05 0.03 99 1010.5
20260505074616 4 274 29.0 45.1 0.00 0.05 0.03 99 1010.5
20260505073711 4 264 27.4 48.3 0.00 0.05 0.03 99 1010.5
20260505073622 4 264 27.4 48.3 0.00 0.05 0.03 99 1010.5
20260505073159 5 271 32.2 48.3 0.00 0.05 0.03 99 1010.2
20260505073125 5 271 32.2 48.3 0.00 0.05 0.03 99 1010.2
20260505072627 5 264 29.0 48.3 0.00 0.05 0.03 99 1010.2
20260505072130 5 266 32.2 48.3 0.00 0.05 0.03 99 1010.3
20260505071739 5 268 25.7 45.1 0.00 0.05 0.03 99 1010.4
20260505071634 5 268 25.7 45.1 0.00 0.05 0.03 99 1010.4
20260505071136 5 266 24.1 45.1 0.00 0.05 0.03 99 1010.4
20260505070640 5 260 29.0 48.3 0.00 0.05 0.03 99 1010.3
20260505070143 5 264 30.6 49.9 0.00 0.05 0.03 99 1010.5
20260505065646 5 265 33.8 49.9 0.00 0.05 0.03 99 1010.3
20260505065247 5 266 32.2 49.9 0.00 0.05 0.03 99 1010.4
20260505065149 5 266 32.2 49.9 0.00 0.05 0.03 99 1010.4
20260505064652 5 267 38.6 49.9 0.00 0.05 0.03 99 1010.7
20260505064154 5 265 30.6 46.7 0.00 0.05 0.03 99 1010.7
20260505063753 5 264 25.7 41.8 0.00 0.05 0.03 99 1011.0
20260505063658 5 264 25.7 41.8 0.00 0.05 0.03 99 1011.0
20260505063253 5 259 22.5 38.6 0.00 0.05 0.03 99 1010.8
20260505063201 5 259 22.5 38.6 0.00 0.05 0.03 99 1010.8
20260505062704 5 267 25.7 41.8 0.00 0.05 0.03 99 1010.5
20260505062207 5 269 27.4 41.8 0.03 0.05 0.03 99 1010.5
20260505061709 5 266 32.2 46.7 0.03 0.05 0.03 99 1010.6
20260505061303 5 267 32.2 46.7 0.03 0.05 0.03 98 1010.6
20260505061213 5 267 32.2 46.7 0.03 0.05 0.03 98 1010.6
20260505060715 5 280 25.7 51.5 0.03 0.05 0.03 98 1010.7
20260505060219 5 277 27.4 51.5 0.03 0.05 0.03 98 1010.6
20260505055224 5 269 35.4 46.7 0.03 0.05 0.03 98 1010.8
20260505054728 5 268 30.6 45.1 0.03 0.05 0.03 98 1011.0
20260505054231 5 261 33.8 51.5 0.03 0.05 0.03 98 1010.7
20260505053237 5 263 29.0 51.5 0.03 0.05 0.03 98 1011.0
20260505052740 5 259 35.4 51.5 0.03 0.05 0.03 98 1010.9
20260505052243 5 248 27.4 56.3 0.00 0.03 0.00 97 1011.0
20260505051746 5 251 32.2 56.3 0.00 0.03 0.00 97 1011.0
20260505051248 5 257 25.7 49.9 0.00 0.03 0.00 97 1011.1
20260505050752 5 266 20.9 49.9 0.00 0.03 0.00 97 1011.2
20260505041324 5 258 20.9 38.6 0.00 0.03 0.00 98 1011.3
20260505040827 5 271 16.1 40.2 0.00 0.03 0.00 98 1011.1
20260505040331 5 251 27.4 45.1 0.00 0.03 0.00 97 1011.3
20260505035834 5 276 17.7 45.1 0.00 0.03 0.00 97 1011.2
20260505035337 5 273 20.9 45.1 0.00 0.03 0.00 97 1011.2
20260505034839 5 281 19.3 45.1 0.00 0.03 0.00 97 1011.1
20260505034343 5 268 19.3 45.1 0.00 0.03 0.00 97 1011.1
20260505033846 5 253 25.7 45.1 0.00 0.03 0.00 97 1011.0
20260505033348 6 270 17.7 38.6 0.00 0.03 0.00 97 1010.9
20260505032355 6 256 20.9 49.9 0.00 0.03 0.00 97 1010.8
20260505031857 6 265 33.8 51.5 0.00 0.03 0.00 96 1010.7
20260505031400 6 253 25.7 45.1 0.00 0.03 0.00 96 1010.6
20260505030903 6 266 20.9 32.2 0.00 0.03 0.00 96 1010.8
20260505030406 6 264 16.1 37.0 0.00 0.03 0.00 96 1010.7
20260505025909 6 261 20.9 38.6 0.00 0.03 0.00 96 1010.7
20260505025412 6 281 20.9 45.1 0.00 0.03 0.00 95 1010.6
20260505024915 6 278 17.7 45.1 0.00 0.03 0.00 95 1010.5
20260505024418 6 276 17.7 45.1 0.00 0.03 0.00 94 1010.6
20260505023922 6 278 25.7 45.1 0.00 0.03 0.00 94 1010.4
20260505023424 6 267 19.3 43.5 0.00 0.03 0.00 94 1010.5
20260505022927 6 278 25.7 43.5 0.00 0.03 0.00 93 1010.2
20260505022431 6 256 20.9 51.5 0.00 0.03 0.00 93 1010.6
20260505021933 6 255 27.4 53.1 0.00 0.03 0.00 93 1010.5
20260505021437 6 255 38.6 53.1 0.00 0.03 0.00 92 1010.4
20260505020940 6 259 20.9 40.2 0.00 0.03 0.00 91 1010.5
20260505020443 6 265 22.5 46.7 0.00 0.03 0.00 91 1010.4
20260505015946 6 262 22.5 46.7 0.00 0.03 0.00 91 1010.2
20260505015449 6 253 27.4 38.6 0.00 0.03 0.00 90 1010.2
20260505014952 7 260 24.1 35.4 0.00 0.03 0.00 89 1010.4
20260505014455 7 268 22.5 48.3 0.00 0.03 0.00 89 1010.4
20260505013958 7 268 27.4 46.7 0.00 0.03 0.00 89 1010.5
20260505013004 7 273 29.0 43.5 0.00 0.03 0.00 88 1010.5
20260505012506 7 277 30.6 48.3 0.00 0.03 0.00 87 1010.4
20260505012009 7 280 24.1 49.9 0.00 0.03 0.00 86 1010.5
20260505011512 7 288 30.6 49.9 0.00 0.03 0.00 86 1010.4
20260505011046 8 287 32.2 48.3 0.00 0.03 0.00 85 1010.5
20260505011015 8 287 32.2 48.3 0.00 0.03 0.00 85 1010.5
20260505010518 8 277 25.7 45.1 0.00 0.03 0.00 85 1010.5
20260505010021 8 283 27.4 43.5 0.00 0.03 0.00 84 1010.7
20260505005524 8 280 25.7 48.3 0.00 0.03 0.00 84 1010.8
20260505005027 8 286 29.0 48.3 0.00 0.03 0.00 83 1010.7
20260505004629 8 285 29.0 51.5 0.00 0.03 0.00 82 1010.6
20260505004530 8 285 29.0 51.5 0.00 0.03 0.00 82 1010.6
20260505004108 8 286 29.0 59.5 0.00 0.03 0.00 83 1010.6
20260505004033 8 286 29.0 59.5 0.00 0.03 0.00 83 1010.6
20260505003630 8 258 43.5 59.5 0.00 0.03 0.00 82 1010.6
20260505003537 8 258 43.5 59.5 0.00 0.03 0.00 82 1010.6
20260505003040 8 265 29.0 51.5 0.00 0.03 0.00 82 1010.7
20260505002543 9 265 30.6 48.3 0.00 0.03 0.00 81 1011.0
20260505002046 9 253 20.9 51.5 0.00 0.03 0.00 81 1011.0
20260505001051 8 254 32.2 51.5 0.00 0.03 0.00 82 1010.8
20260505000555 8 271 20.9 48.3 0.00 0.03 0.00 82 1010.8
20260505000058 9 265 30.6 48.3 0.00 0.03 0.00 80 1010.8
20260504235713 9 264 22.5 49.9 0.00 0.03 0.00 80 1010.8
20260504235601 9 264 22.5 49.9 0.00 0.03 0.00 80 1010.8
20260504235104 9 252 37.0 49.9 0.00 0.03 0.00 80 1010.8
20260504234738 9 257 29.0 51.5 0.00 0.03 0.00 79 1010.7
20260504234607 9 257 29.0 51.5 0.00 0.03 0.00 79 1010.7
20260504234225 9 251 32.2 54.7 0.00 0.03 0.00 79 1010.9
20260504234109 9 251 32.2 54.7 0.00 0.03 0.00 79 1010.9
20260504233613 9 246 37.0 54.7 0.00 0.03 0.00 78 1010.8
20260504233116 9 251 30.6 48.3 0.00 0.03 0.00 78 1010.9
20260504232738 9 275 22.5 48.3 0.00 0.03 0.00 78 1010.8
20260504232619 9 275 22.5 48.3 0.00 0.03 0.00 78 1010.8
20260504232122 9 258 25.7 45.1 0.00 0.03 0.00 77 1010.7
20260504231128 10 280 24.1 41.8 0.00 0.03 0.00 76 1010.9
20260504230734 10 265 17.7 48.3 0.00 0.03 0.00 78 1011.0
20260504230631 10 265 17.7 48.3 0.00 0.03 0.00 78 1011.0
20260504225739 10 247 27.4 46.7 0.00 0.03 0.00 75 1010.9
20260504225637 10 247 27.4 46.7 0.00 0.03 0.00 75 1010.9
20260504225140 10 274 25.7 43.5 0.00 0.03 0.00 76 1010.9
20260504224643 10 263 24.1 46.7 0.00 0.03 0.00 77 1011.0
20260504224222 4 262 22.5 49.9 0.00 0.03 0.00 75 1011.0
20260504224146 -17 262 22.5 49.9 0.00 0.03 0.00 75 1011.0
20260504223649 10 269 29.0 49.9 0.00 0.03 0.00 73 1010.8
20260504222655 10 282 29.0 43.5 0.00 0.03 0.00 75 1011.1
20260504222158 10 283 29.0 49.9 0.00 0.03 0.00 73 1011.1
20260504221928 10 254 32.2 49.9 0.00 0.03 0.00 73 1011.2
20260504221701 10 254 32.2 49.9 0.00 0.03 0.00 73 1011.2
20260504221204 10 279 27.4 49.9 0.00 0.03 0.00 76 1011.1
20260504220707 10 283 27.4 49.9 0.00 0.03 0.00 76 1011.2
20260504220348 10 274 27.4 49.9 0.00 0.03 0.00 75 1011.2
20260504220210 10 274 27.4 49.9 0.00 0.03 0.00 75 1011.2
20260504215712 10 247 35.4 53.1 0.00 0.03 0.00 75 1011.4
20260504215344 10 250 40.2 53.1 0.00 0.03 0.00 74 1011.3
20260504215216 10 250 40.2 53.1 0.00 0.03 0.00 74 1011.3
20260504214719 10 265 24.1 49.9 0.00 0.03 0.00 76 1011.5
20260504214222 10 264 22.5 51.5 0.00 0.03 0.00 77 1011.4
20260504213725 10 253 33.8 51.5 0.00 0.03 0.00 77 1011.5
20260504213342 10 257 29.0 48.3 0.00 0.03 0.00 77 1011.6
20260504213228 10 257 29.0 48.3 0.00 0.03 0.00 77 1011.6
20260504212730 10 269 22.5 43.5 0.00 0.03 0.00 79 1011.8
20260504212234 10 282 24.1 41.8 0.00 0.03 0.00 81 1011.7
20260504211737 9 269 19.3 41.8 0.00 0.03 0.00 81 1011.9
20260504211239 10 280 20.9 41.8 0.00 0.03 0.00 80 1011.9
20260504210245 10 277 22.5 37.0 0.00 0.03 0.00 81 1012.0
20260504205820 10 264 17.7 46.7 0.00 0.03 0.00 83 1012.0
20260504205749 10 264 17.7 46.7 0.00 0.03 0.00 83 1012.0
20260504204754 9 286 24.1 41.8 0.00 0.03 0.00 85 1011.8
20260504204257 9 275 25.7 46.7 0.00 0.03 0.00 84 1011.7
20260504203801 10 282 29.0 46.7 0.00 0.03 0.00 82 1012.0
20260504203303 10 277 22.5 45.1 0.00 0.03 0.00 84 1011.9
20260504202859 9 269 22.5 41.8 0.00 0.03 0.00 85 1011.9
20260504202806 9 269 22.5 41.8 0.00 0.03 0.00 85 1011.9
20260504202310 9 258 25.7 41.8 0.00 0.03 0.00 85 1012.0
20260504201813 9 266 27.4 40.2 0.00 0.03 0.00 85 1012.0
20260504201453 8 289 22.5 38.6 0.00 0.03 0.00 88 1012.0
20260504201351 8 289 22.5 38.6 0.00 0.03 0.00 88 1012.0
20260504201316 8 289 22.5 38.6 0.00 0.03 0.00 88 1012.0
20260504200914 8 290 17.7 33.8 0.00 0.03 0.00 90 1012.0
20260504200819 8 290 17.7 33.8 0.00 0.03 0.00 90 1012.0
20260504195825 8 267 19.3 30.6 0.00 0.03 0.00 91 1012.1
20260504195328 8 276 19.3 33.8 0.00 0.03 0.00 92 1012.1
20260504194831 7 275 22.5 38.6 0.00 0.03 0.00 92 1012.1
20260504194334 7 272 25.7 38.6 0.00 0.03 0.00 92 1012.1
20260504193837 7 252 20.9 32.2 0.00 0.03 0.00 93 1012.1
20260504193340 7 276 17.7 35.4 0.00 0.03 0.00 94 1012.3
20260504192843 7 262 20.9 35.4 0.00 0.03 0.00 94 1012.0
20260504192346 7 286 19.3 33.8 0.00 0.03 0.00 94 1011.8
20260504191849 7 275 12.9 40.2 0.00 0.03 0.00 94 1012.1
20260504191352 7 272 16.1 46.7 0.00 0.03 0.00 94 1012.1
20260504190943 7 262 33.8 46.7 0.00 0.03 0.00 94 1012.1
20260504190855 7 262 33.8 46.7 0.00 0.03 0.00 94 1012.1
20260504190358 7 263 32.2 43.5 0.00 0.03 0.00 94 1012.1
20260504185901 7 261 27.4 41.8 0.00 0.03 0.00 94 1012.3
20260504185404 7 270 16.1 43.5 0.00 0.03 0.00 94 1012.3
20260504184907 7 269 29.0 43.5 0.00 0.03 0.00 94 1012.3
20260504184552 7 262 30.6 45.1 0.00 0.03 0.00 95 1013.0
20260504184410 7 262 30.6 45.1 0.00 0.03 0.00 95 1013.0
20260504183913 7 256 19.3 45.1 0.00 0.03 0.00 96 1013.0
20260504183416 7 267 30.6 45.1 0.00 0.03 0.00 96 1013.0
20260504182919 6 269 33.8 43.5 0.00 0.03 0.00 97 1013.0